User: anonymous   Login
Location: El Carrer d�Abaix
(41.5797°N, 2.1791°E)
Time: 17:37:08
(UTC+00:00)
Language:

USA 245 - Orbit

View from above orbital plane
View from above orbital plane
View from above satellite
View from above satellite

Ground track
Ground track

The orbit data is extracted from the following two-line orbital elements,

1 39232U 13043A   20225.89747387 0.00004900  00000-0  54464-4 0    07
2 39232  97.9330 286.5393 0527190 213.7754 146.2244 14.76498759    04
Epoch (UTC): 12 August 2020 21:32:21
Eccentricity: 0.0527190
inclination: 97.9330°
perigee height: 270 km
apogee height: 1010 km
right ascension of ascending node: 286.5393°
argument of perigee: 213.7754°
revolutions per day: 14.76498759
mean anomaly at epoch: 146.2244°
orbit number at epoch: 0

The dashed part of the orbit path shows where the satellite is in the earth's shadow,  

DLR